Weather History for South Pass, WY

Change the Weather History Date:

Tuesday, January 21, 2014

  Actual Average (KLND) Record (KLND)
Temperature  
Mean Temperature 35 °F 22 °F  
Max Temperature 42 °F 33 °F 55 °F (1950)
Min Temperature 28 °F 10 °F -34 °F (1930)
Degree Days  
Heating Degree Days 30 43  
Month to date heating degree days 912  
Since 1 July heating degree days 4158  
Cooling Degree Days 0 0  
Month to date cooling degree days 0  
Year to date cooling degree days 0  
Moisture  
Dew Point -5 °F    
Average Humidity 20    
Maximum Humidity 38    
Minimum Humidity 5    
Precipitation  
Precipitation 0.00 in 0.01 in 0.32 in (1915)
Month to date precipitation 0.28  
Year to date precipitation 0.28  
Sea Level Pressure  
Sea Level Pressure 30.18 in    
Wind  
Wind Speed 9 mph (West)    
Max Wind Speed 21 mph    
Max Gust Speed 33 mph    
Visibility 10 miles    
Events      
T = Trace of Precipitation, MM = Missing Value Source: NWS Daily Summary

Daily Weather History Graph

Daily Weather History Graph

Search for Another Location

Airport:

Trip Planner

Search our weather history database for the weather conditions in past years. The results will help you decide how hot, cold, wet, or windy it might be!

Date:

Astronomy

Jan. 21, 2014 Rise Set
Actual Time 7:38 AM MST 5:14 PM MST
Civil Twilight 7:07 AM MST 5:45 PM MST
Nautical Twilight 6:33 AM MST 6:19 PM MST
Astronomical Twilight 6:00 AM MST 6:53 PM MST
Moon 10:59 PM MST (1/21) 10:02 AM MST (1/21)
Length of Visible Light 10h 37m
Length of Day
9h 36m
Waning Gibbous, 74% of the Moon is Illuminated
Jan 21
Waning Gibbous
Jan 23
Last Quarter
Jan 30
New
Feb 6
First Quarter
Feb 14
Full

Hourly Weather History & Observations

Time (MST) Temp. Windchill Dew Point Humidity Pressure Visibility Wind Dir Wind Speed Gust Speed Precip Events Conditions
12:15 AM 32.0 °F 22.1 °F -16.6 °F 12% 30.29 in 10.0 mi West 13.8 mph 21.9 mph N/A   Clear
12:35 AM 32.0 °F 22.5 °F -14.8 °F 13% 30.29 in 10.0 mi WSW 12.7 mph - N/A   Clear
12:55 AM 30.2 °F 20.2 °F -13.0 °F 15% 30.29 in 10.0 mi WSW 12.7 mph - N/A   Clear
1:15 AM 30.2 °F 19.3 °F -13.0 °F 15% 30.28 in 10.0 mi WSW 15.0 mph - N/A   Clear
1:35 AM 28.4 °F 18.0 °F -14.8 °F 15% - 10.0 mi WSW 12.7 mph - N/A   Clear
1:55 AM 30.2 °F 20.2 °F -16.6 °F 13% - 10.0 mi WSW 12.7 mph - N/A   Clear
2:15 AM 32.0 °F 23.6 °F -18.4 °F 11% - 10.0 mi West 10.4 mph - N/A   Clear
2:35 AM 35.6 °F 27.5 °F -23.8 °F 7% - 10.0 mi WNW 11.5 mph - N/A   Clear
2:55 AM 35.6 °F 28.0 °F -23.8 °F 7% 30.26 in 10.0 mi West 10.4 mph - N/A   Clear
3:15 AM 35.6 °F 30.7 °F -23.8 °F 7% 30.25 in 10.0 mi West 5.8 mph 17.3 mph N/A   Clear
3:35 AM 35.6 °F 32.8 °F -23.8 °F 7% 30.25 in 10.0 mi SW 3.5 mph - N/A   Clear
3:55 AM 35.6 °F 29.2 °F -25.6 °F 6% 30.23 in 10.0 mi WNW 8.1 mph - N/A   Clear
4:15 AM 37.4 °F 28.9 °F -25.6 °F 6% 30.22 in 10.0 mi West 13.8 mph 19.6 mph N/A   Clear
4:35 AM 41.0 °F 33.1 °F -27.4 °F 5% 30.21 in 10.0 mi WNW 15.0 mph 24.2 mph N/A   Clear
4:55 AM 41.0 °F 31.6 °F -27.4 °F 5% 30.20 in 10.0 mi West 20.7 mph 31.1 mph N/A   Clear
5:15 AM 41.0 °F 32.2 °F -27.4 °F 5% 30.19 in 10.0 mi West 18.4 mph 33.4 mph N/A   Clear
5:35 AM 39.2 °F 30.2 °F -27.4 °F 5% 30.19 in 10.0 mi West 17.3 mph 25.3 mph N/A   Clear
5:55 AM 39.2 °F 30.5 °F -27.4 °F 5% 30.19 in 10.0 mi West 16.1 mph 28.8 mph N/A   Clear
6:15 AM 39.2 °F 31.6 °F -27.4 °F 5% 30.19 in 10.0 mi West 12.7 mph 24.2 mph N/A   Clear
6:35 AM 39.2 °F 31.6 °F -25.6 °F 6% 30.20 in 10.0 mi WNW 12.7 mph 21.9 mph N/A   Clear
6:55 AM 37.4 °F 32.1 °F -25.6 °F 6% 30.21 in 10.0 mi NW 6.9 mph 16.1 mph N/A   Clear
7:15 AM 35.6 °F 26.6 °F -20.2 °F 8% 30.21 in 10.0 mi NNW 13.8 mph 20.7 mph N/A   Clear
7:35 AM 39.2 °F 32.5 °F -27.4 °F 5% 30.21 in 10.0 mi WNW 10.4 mph 20.7 mph N/A   Clear
7:55 AM 39.2 °F - -25.6 °F 6% 30.23 in 10.0 mi Calm Calm - N/A   Clear
8:15 AM 37.4 °F - -22.0 °F 7% 30.22 in 10.0 mi Calm Calm - N/A   Clear
8:35 AM 37.4 °F 34.9 °F -18.4 °F 9% 30.22 in 10.0 mi SSW 3.5 mph - N/A   Clear
8:55 AM 35.6 °F 29.2 °F -7.6 °F 16% 30.21 in 10.0 mi SW 8.1 mph - N/A   Clear
9:15 AM 33.8 °F 25.8 °F -4.0 °F 20% 30.21 in 10.0 mi WSW 10.4 mph - N/A   Clear
9:35 AM 33.8 °F 25.8 °F -2.2 °F 22% 30.21 in 10.0 mi WSW 10.4 mph - N/A   Clear
9:55 AM 33.8 °F 25.8 °F -0.4 °F 23% 30.21 in 10.0 mi West 10.4 mph - N/A   Clear
10:15 AM 37.4 °F 34.9 °F -5.8 °F 16% 30.23 in 10.0 mi NE 3.5 mph - N/A   Clear
10:35 AM 39.2 °F 35.9 °F -13.0 °F 10% 30.23 in 10.0 mi NNE 4.6 mph - N/A   Clear
10:55 AM 41.0 °F - -16.6 °F 8% 30.23 in 10.0 mi Calm Calm - N/A   Clear
11:15 AM 42.8 °F - -14.8 °F 8% 30.22 in 10.0 mi Calm Calm - N/A   Clear
11:35 AM 41.0 °F 36.4 °F -4.0 °F 15% 30.21 in 10.0 mi SW 6.9 mph - N/A   Clear
11:55 AM 41.0 °F 38.0 °F -0.4 °F 18% 30.21 in 10.0 mi SW 4.6 mph - N/A   Clear
12:15 PM 41.0 °F 35.8 °F 6.8 °F 24% 30.20 in 10.0 mi WSW 8.1 mph - N/A   Clear
12:35 PM 42.8 °F 38.6 °F 5.0 °F 21% 30.19 in 10.0 mi WSW 6.9 mph - N/A   Clear
12:55 PM 42.8 °F 38.6 °F 8.6 °F 25% 30.18 in 10.0 mi SW 6.9 mph - N/A   Clear
1:15 PM 41.0 °F 34.7 °F 8.6 °F 26% 30.17 in 10.0 mi WSW 10.4 mph - N/A   Clear
1:35 PM 41.0 °F 34.7 °F 8.6 °F 26% 30.17 in 10.0 mi WSW 10.4 mph - N/A   Clear
1:55 PM 41.0 °F 34.7 °F 10.4 °F 29% 30.16 in 10.0 mi WSW 10.4 mph - N/A   Clear
2:15 PM 41.0 °F 35.2 °F 10.4 °F 29% 30.15 in 10.0 mi WSW 9.2 mph - N/A   Clear
2:35 PM 39.2 °F 31.2 °F 10.4 °F 31% 30.14 in 10.0 mi WSW 13.8 mph 18.4 mph N/A   Clear
2:55 PM 41.0 °F 34.3 °F 10.4 °F 29% 30.14 in 10.0 mi WSW 11.5 mph - N/A   Clear
3:15 PM 41.0 °F 34.3 °F 10.4 °F 29% 30.14 in 10.0 mi West 11.5 mph - N/A   Clear
3:35 PM 41.0 °F 35.2 °F 10.4 °F 29% 30.14 in 10.0 mi West 9.2 mph - N/A   Clear
3:55 PM 41.0 °F 37.1 °F 8.6 °F 26% 30.14 in 10.0 mi West 5.8 mph - N/A   Clear
4:15 PM 41.0 °F 39.0 °F 10.4 °F 29% 30.15 in 10.0 mi WSW 3.5 mph - N/A   Clear
4:35 PM 37.4 °F - 10.4 °F 33% 30.14 in 10.0 mi Calm Calm - N/A   Clear
4:55 PM 37.4 °F 32.8 °F 10.4 °F 33% 30.15 in 10.0 mi WSW 5.8 mph - N/A   Clear
5:15 PM 35.6 °F 29.9 °F 10.4 °F 35% 30.15 in 10.0 mi West 6.9 mph - N/A   Clear
5:35 PM 33.8 °F 27.0 °F 10.4 °F 38% 30.14 in 10.0 mi WSW 8.1 mph - N/A   Clear
5:55 PM 33.8 °F - 8.6 °F 35% 30.14 in 10.0 mi Calm Calm - N/A   Clear
6:15 PM 37.4 °F - 6.8 °F 28% 30.14 in 10.0 mi Calm Calm - N/A   Clear
6:35 PM 37.4 °F - 5.0 °F 26% 30.14 in 10.0 mi Calm Calm - N/A   Clear
6:55 PM 35.6 °F - 5.0 °F 28% 30.14 in 10.0 mi Calm Calm - N/A   Clear
7:15 PM 35.6 °F - 5.0 °F 28% 30.14 in 10.0 mi Calm Calm - N/A   Clear
7:35 PM 35.6 °F 32.8 °F 5.0 °F 28% 30.14 in 10.0 mi ENE 3.5 mph - N/A   Clear
7:55 PM 33.8 °F 30.8 °F 5.0 °F 30% 30.14 in 10.0 mi NNE 3.5 mph - N/A   Clear
8:15 PM 33.8 °F - 5.0 °F 30% 30.14 in 10.0 mi Calm Calm - N/A   Clear
8:35 PM 32.0 °F 28.7 °F 5.0 °F 32% 30.13 in 10.0 mi North 3.5 mph - N/A   Clear
8:55 PM 32.0 °F 27.5 °F 5.0 °F 32% 30.13 in 10.0 mi North 4.6 mph - N/A   Clear
9:15 PM 33.8 °F - 5.0 °F 30% 30.13 in 10.0 mi Calm Calm - N/A   Clear
9:35 PM 32.0 °F 27.5 °F 5.0 °F 32% 30.12 in 10.0 mi NNW 4.6 mph - N/A   Clear
9:55 PM 32.0 °F 28.7 °F 5.0 °F 32% 30.12 in 10.0 mi North 3.5 mph - N/A   Clear
10:15 PM 32.0 °F 27.5 °F 5.0 °F 32% 30.12 in 10.0 mi North 4.6 mph - N/A   Clear
10:35 PM 32.0 °F 25.6 °F 5.0 °F 32% 30.12 in 10.0 mi North 6.9 mph - N/A   Clear
10:55 PM 32.0 °F 26.4 °F 5.0 °F 32% 30.12 in 10.0 mi North 5.8 mph - N/A   Clear
11:15 PM 32.0 °F 26.4 °F 3.2 °F 30% 30.13 in 10.0 mi NW 5.8 mph - N/A   Clear
11:35 PM 32.0 °F 28.7 °F 5.0 °F 32% 30.12 in 10.0 mi NNW 3.5 mph - N/A   Clear
11:55 PM 32.0 °F 28.7 °F 5.0 °F 32% 30.12 in 10.0 mi WSW 3.5 mph - N/A   Clear